When you browse on this site, cookies collect data to enhance your experience and personalize the content and advertising you see.
Visit our Privacy Policy to learn more. By continuing to use the site, you agree to this use of cookies and data.
  • In Lithuania
  • List of Countries
  • For 7 days
  • Water Temperature
  • Satellite Maps
  • Weather Map
  • Weather Widgets
  • user-avatar
    Login

    Hourly Weather Rogachi

    Today, 21 May, Tuesday

    Time Temperature Precipitation Wind Pressure Humidity
    00:00 +14°C° 0 mm 2 mps 746 mmHg 78%
    01:00 +14°C° 0 mm 1 mps 746 mmHg 80%
    02:00 +13°C° 0 mm 1 mps 746 mmHg 82%
    03:00 +13°C° 0 mm 1 mps 746 mmHg 84%
    04:00 +13°C° 0 mm 1 mps 746 mmHg 84%
    05:00 +14°C° 0 mm 1 mps 746 mmHg 84%
    06:00 +14°C° 0 mm 1 mps 746 mmHg 84%
    07:00 +16°C° 0 mm 1 mps 746 mmHg 79%
    08:00 +18°C° 0 mm 1 mps 746 mmHg 74%
    09:00 +20°C° 0 mm 1 mps 746 mmHg 69%
    10:00 +20°C° 0.3 mm 2 mps 746 mmHg 65%
    11:00 +21°C° 0.3 mm 2 mps 746 mmHg 61%
    12:00 +23°C° 0.3 mm 2 mps 746 mmHg 58%
    13:00 +23°C° 0.4 mm 2 mps 746 mmHg 57%
    14:00 +22°C° 0.4 mm 3 mps 745 mmHg 57%
    15:00 +22°C° 0.4 mm 3 mps 745 mmHg 57%
    16:00 +22°C° 0.6 mm 3 mps 745 mmHg 61%
    17:00 +21°C° 0.6 mm 3 mps 744 mmHg 65%
    18:00 +21°C° 0.6 mm 2 mps 744 mmHg 68%
    19:00 +20°C° 0.1 mm 2 mps 744 mmHg 72%
    20:00 +18°C° 0.1 mm 2 mps 744 mmHg 76%
    21:00 +16°C° 0.1 mm 2 mps 744 mmHg 80%
    22:00 +16°C° 0 mm 2 mps 743 mmHg 81%
    23:00 +14°C° 0 mm 3 mps 743 mmHg 82%

    Tomorrow, 22 May, Wednesday

    Time Temperature Precipitation Wind Pressure Humidity
    00:00 +13°C° 0 mm 3 mps 743 mmHg 82%
    01:00 +13°C° 0 mm 3 mps 743 mmHg 83%
    02:00 +12°C° 0 mm 3 mps 743 mmHg 84%
    03:00 +12°C° 0 mm 3 mps 742 mmHg 85%
    04:00 +12°C° 0 mm 3 mps 742 mmHg 85%
    05:00 +12°C° 0 mm 3 mps 742 mmHg 85%
    06:00 +14°C° 0 mm 2 mps 742 mmHg 85%
    07:00 +14°C° 0 mm 3 mps 741 mmHg 82%
    08:00 +17°C° 0 mm 3 mps 741 mmHg 78%
    09:00 +19°C° 0 mm 3 mps 741 mmHg 75%
    10:00 +19°C° 0.1 mm 4 mps 741 mmHg 73%
    11:00 +20°C° 0.1 mm 4 mps 741 mmHg 70%
    12:00 +20°C° 0.1 mm 5 mps 740 mmHg 68%
    13:00 +21°C° 0.1 mm 5 mps 740 mmHg 68%
    14:00 +21°C° 0.1 mm 5 mps 739 mmHg 68%
    15:00 +21°C° 0.1 mm 5 mps 739 mmHg 68%
    16:00 +21°C° 0.3 mm 4 mps 738 mmHg 71%
    17:00 +21°C° 0.3 mm 4 mps 738 mmHg 74%
    18:00 +20°C° 0.3 mm 4 mps 738 mmHg 77%
    19:00 +19°C° 0.3 mm 4 mps 737 mmHg 81%
    20:00 +18°C° 0.3 mm 3 mps 737 mmHg 85%
    21:00 +17°C° 0.3 mm 3 mps 737 mmHg 90%
    22:00 +17°C° 0.7 mm 3 mps 737 mmHg 91%
    23:00 +16°C° 0.7 mm 3 mps 737 mmHg 93%

    Day after tomorrow, 23 May, Thursday

    Time Temperature Precipitation Wind Pressure Humidity
    00:00 +16°C° 0.7 mm 3 mps 736 mmHg 94%
    01:00 +16°C° 0.1 mm 3 mps 736 mmHg 95%
    02:00 +14°C° 0.1 mm 3 mps 736 mmHg 95%
    03:00 +14°C° 0.1 mm 3 mps 736 mmHg 96%
    04:00 +14°C° 0 mm 3 mps 736 mmHg 94%
    05:00 +14°C° 0 mm 3 mps 736 mmHg 93%
    06:00 +16°C° 0 mm 3 mps 736 mmHg 92%
    07:00 +17°C° 0.2 mm 3 mps 736 mmHg 87%
    08:00 +18°C° 0.2 mm 3 mps 736 mmHg 83%
    09:00 +20°C° 0.2 mm 4 mps 735 mmHg 78%
    10:00 +21°C° 0.2 mm 4 mps 735 mmHg 73%
    11:00 +22°C° 0.2 mm 4 mps 735 mmHg 68%
    12:00 +23°C° 0.2 mm 5 mps 735 mmHg 63%
    13:00 +23°C° 0.4 mm 5 mps 735 mmHg 63%
    14:00 +25°C° 0.4 mm 5 mps 735 mmHg 63%
    15:00 +25°C° 0.4 mm 5 mps 735 mmHg 62%
    16:00 +23°C° 0.6 mm 4 mps 735 mmHg 67%
    17:00 +22°C° 0.6 mm 3 mps 735 mmHg 73%
    18:00 +23°C° 0.6 mm 2 mps 735 mmHg 78%
    19:00 +20°C° 0.2 mm 2 mps 736 mmHg 81%
    20:00 +19°C° 0.2 mm 2 mps 736 mmHg 84%
    21:00 +19°C° 0.2 mm 1 mps 736 mmHg 87%
    22:00 +17°C° 0 mm 2 mps 736 mmHg 89%
    23:00 +16°C° 0 mm 2 mps 737 mmHg 92%

    24 May, Friday

    Time Temperature Precipitation Wind Pressure Humidity
    00:00 +16°C° 0 mm 2 mps 737 mmHg 94%
    01:00 +14°C° 0 mm 3 mps 737 mmHg 95%
    02:00 +14°C° 0 mm 3 mps 737 mmHg 95%
    03:00 +13°C° 0 mm 4 mps 737 mmHg 95%
    04:00 +13°C° 0 mm 4 mps 737 mmHg 94%
    05:00 +13°C° 0 mm 4 mps 738 mmHg 94%
    06:00 +12°C° 0 mm 4 mps 738 mmHg 93%
    07:00 +13°C° 0 mm 4 mps 738 mmHg 90%
    08:00 +15°C° 0 mm 4 mps 738 mmHg 87%
    09:00 +17°C° 0 mm 4 mps 738 mmHg 84%
    10:00 +18°C° 0 mm 4 mps 738 mmHg 80%
    11:00 +19°C° 0 mm 4 mps 738 mmHg 77%
    12:00 +21°C° 0 mm 4 mps 738 mmHg 73%
    13:00 +21°C° 0.7 mm 4 mps 738 mmHg 73%
    14:00 +21°C° 0.7 mm 4 mps 738 mmHg 74%
    15:00 +21°C° 0.7 mm 4 mps 737 mmHg 74%
    16:00 +20°C° 0.5 mm 4 mps 737 mmHg 79%
    17:00 +20°C° 0.5 mm 3 mps 737 mmHg 83%
    18:00 +19°C° 0.5 mm 3 mps 737 mmHg 87%
    19:00 +18°C° 0 mm 3 mps 737 mmHg 89%
    20:00 +18°C° 0 mm 3 mps 737 mmHg 92%
    21:00 +17°C° 0 mm 3 mps 736 mmHg 94%
    22:00 +17°C° 0.4 mm 3 mps 736 mmHg 95%
    23:00 +16°C° 0.4 mm 3 mps 736 mmHg 95%

    25 May, Saturday

    Time Temperature Precipitation Wind Pressure Humidity
    00:00 +16°C° 0.4 mm 3 mps 736 mmHg 96%
    01:00 +14°C° 0.5 mm 3 mps 736 mmHg 96%
    02:00 +14°C° 0.5 mm 3 mps 736 mmHg 96%
    03:00 +14°C° 0.5 mm 3 mps 735 mmHg 95%
    04:00 +14°C° 0.2 mm 3 mps 735 mmHg 95%
    05:00 +16°C° 0.2 mm 3 mps 735 mmHg 94%
    06:00 +16°C° 0.2 mm 3 mps 735 mmHg 94%
    07:00 +17°C° 0.3 mm 3 mps 735 mmHg 90%
    08:00 +19°C° 0.3 mm 3 mps 735 mmHg 85%
    09:00 +20°C° 0.3 mm 4 mps 735 mmHg 81%
    10:00 +21°C° 0.6 mm 4 mps 735 mmHg 77%
    11:00 +22°C° 0.6 mm 4 mps 735 mmHg 73%
    12:00 +23°C° 0.6 mm 4 mps 735 mmHg 69%
    13:00 +23°C° 1.2 mm 4 mps 734 mmHg 69%
    14:00 +23°C° 1.2 mm 4 mps 734 mmHg 68%
    15:00 +23°C° 1.2 mm 4 mps 734 mmHg 68%
    16:00 +23°C° 0.7 mm 4 mps 733 mmHg 71%
    17:00 +22°C° 0.7 mm 3 mps 733 mmHg 74%
    18:00 +22°C° 0.7 mm 3 mps 733 mmHg 76%
    19:00 +21°C° 0.2 mm 3 mps 733 mmHg 79%
    20:00 +19°C° 0.2 mm 3 mps 733 mmHg 83%
    21:00 +18°C° 0.2 mm 3 mps 732 mmHg 86%
    22:00 +17°C° 0.2 mm 3 mps 732 mmHg 87%
    23:00 +17°C° 0.2 mm 3 mps 732 mmHg 89%

    26 May, Sunday

    Time Temperature Precipitation Wind Pressure Humidity
    00:00 +16°C° 0.2 mm 3 mps 732 mmHg 90%
    01:00 +16°C° 0 mm 2 mps 732 mmHg 92%
    02:00 +15°C° 0 mm 2 mps 732 mmHg 93%
    03:00 +15°C° 0 mm 2 mps 732 mmHg 94%
    04:00 +15°C° 0 mm 2 mps 732 mmHg 94%
    05:00 +14°C° 0 mm 3 mps 732 mmHg 95%
    06:00 +14°C° 0 mm 3 mps 732 mmHg 95%
    07:00 +14°C° 0 mm 3 mps 732 mmHg 94%
    08:00 +14°C° 0 mm 4 mps 732 mmHg 92%
    09:00 +15°C° 0 mm 4 mps 733 mmHg 91%
    10:00 +15°C° 0 mm 4 mps 733 mmHg 88%
    11:00 +16°C° 0 mm 5 mps 733 mmHg 84%
    12:00 +17°C° 0 mm 5 mps 733 mmHg 81%
    13:00 +19°C° 0 mm 5 mps 733 mmHg 74%
    14:00 +20°C° 0 mm 5 mps 733 mmHg 67%
    15:00 +22°C° 0 mm 6 mps 733 mmHg 60%
    16:00 +21°C° 0 mm 5 mps 733 mmHg 64%
    17:00 +21°C° 0 mm 4 mps 733 mmHg 67%
    18:00 +21°C° 0 mm 3 mps 733 mmHg 70%
    19:00 +19°C° 0 mm 3 mps 734 mmHg 74%
    20:00 +18°C° 0 mm 3 mps 734 mmHg 78%
    21:00 +16°C° 0 mm 3 mps 734 mmHg 82%
    22:00 +14°C° 0 mm 3 mps 735 mmHg 84%
    23:00 +14°C° 0 mm 3 mps 735 mmHg 86%
    Show more